Location: Christchurch
(43.5330°S, 172.6330°E)
Time: 13:20:06
(UTC+13:00)

Nimbus 7 Rocket - Pass Details

Date: 24 January 2019
Orbit: 922 x 966 km, 99.5° (Epoch: 20 February)

Event Time Altitude Azimuth Distance (km) Brightness Sun altitude
Exits shadow 22:38:52 20° 31° (NNE) 2,024 5.6 -14.6°
Maximum altitude 22:43:04 68° 109° (ESE) 1,021 4.5 -15.1°
Drops below altitude 10° 22:49:03 10° 190° (S) 2,699 7.7 -15.8°
Sets 22:51:32 0° 192° (SSW) 3,657 8.6 -16.1°
